{"data":{"norad_id":57644,"intl_designator":"2023-122N","name":"STARLINK-30247","alt_names":[],"object_type":"PAYLOAD","status":"ACTIVE","operator":null,"country":"US","launch_date":"2023-08-17","launch_site_code":"AFETR","launch_vehicle":null,"mission":null,"orbit_class":"UNKNOWN","rcs_meters":null,"size_class":null,"mass_kg":null,"dimensions":null,"purposes":["comms"],"wikipedia_slug":null,"has_3d_model":false,"image_url":null,"decayed_at":null,"tle_current":{"epoch":"2026-09-20T04:12:21.019392Z","epoch_age_seconds":159700,"freshness":"FRESH","line1":"1 57644U 23122N   26263.17524328 -.00000082  00000+0  65559-5 0  9992","line2":"2 57644  43.0025  73.9336 0001287 262.7457  97.3249 15.27575612171952","mean_motion":15.27575612,"eccentricity":0.0001287,"inclination_deg":43.0025,"raan_deg":73.9336,"arg_perigee_deg":262.7457,"mean_anomaly_deg":97.3249,"bstar":6.5559e-6,"rev_number":17195,"period_min":94.267019497297,"perigee_km":482.17919898009,"apogee_km":483.94527166327,"semimajor_km":6861.1992353217,"source":"CELESTRAK","updated_at":"2026-09-21T09:00:33.667631Z"}}}